Location: Chaumontel
(49.1247°N, 2.4324°E)
Time: 14:04:50
(UTC+00:00)

COSMOS 2428 - Pass Details

Date: 10 August 2024
Orbit: 842 x 857 km, 70.9° (Epoch: 14 September)

Event Time Altitude Azimuth Distance (km) Brightness Sun altitude
Exits shadow 02:11:39 32° 199° (SSW) 1,406 3.3 -18.8°
Maximum altitude 02:14:22 81° 116° (ESE) 865 2.7 -18.5°
Drops below altitude 10° 02:20:06 10° 30° (NNE) 2,489 6.4 -18.0°
Sets 02:22:33 0° 30° (NNE) 3,431 7.6 -17.7°
